User: anonymous   Login
Location: Unspecified
(0.0000°N, 0.0000°E)
Time: 16:05:30
(UTC+02:00)
Language:

Delta 168 - Orbit

View from above orbital plane
View from above orbital plane
View from above satellite
View from above satellite

Ground track
Ground track

The orbit data is extracted from the following two-line orbital elements,

1 14051U 83041B   17116.81948830 +.00001501 +00000-0 +12583-3 0  9993
2 14051 025.3332 242.0692 1098152 007.9752 353.6775 13.08255712571713
Epoch (UTC): 26 April 2017 19:40:03
Eccentricity: 0.1098152
inclination: 25.3332°
perigee height: 394 km
apogee height: 2065 km
right ascension of ascending node: 242.0692°
argument of perigee: 7.9752°
revolutions per day: 13.08255712
mean anomaly at epoch: 353.6775°
orbit number at epoch: 57171

The dashed part of the orbit path shows where the satellite is in the earth's shadow,  

DLR